GFSFLT2_sfc_rhum_270.txt.gz
RH
96 95 94 94 94 94 95 95 94 94 94 95 95 94 94 92 92 92 92 92 92 93 94 94 92 90 89 88 90 88 89 84
96 96 96 96 96 95 96 95 94 93 93 94 95 95 94 93 92 92 92 93 93 93 94 94 93 92 90 90 91 89 91 88
98 96 96 96 97 96 95 94 94 94 93 94 96 97 97 96 95 94 92 92 93 94 94 95 95 95 93 91 90 94 89 86
98 96 96 96 91 96 97 96 95 95 96 96 97 98 98 96 96 95 93 93 93 94 94 96 96 99 98 93 96 93 90 86
96 97 95 91 94 98 96 97 98 97 96 96 97 97 98 99 100 99 99 95 99 97 98 99 99 99 98 97 93 90 88 83
78 95 98 97 95 97 92 92 89 96 97 97 98 99 99 99 99 99 99 99 99 99 99 99 99 98 97 95 91 88 82 80
66 81 90 92 96 93 94 93 93 94 96 96 96 98 98 98 98 99 99 99 99 99 99 98 98 96 95 93 87 85 83 77
69 67 75 79 87 83 86 88 90 94 92 92 95 91 90 95 96 97 98 96 96 97 97 96 94 94 92 89 84 81 78 78
69 69 65 70 76 76 79 83 87 92 90 93 94 92 91 90 94 97 93 96 95 97 97 96 96 92 89 86 82 79 76 74
63 63 68 66 65 66 68 76 83 84 86 88 90 90 90 95 95 94 92 95 92 95 93 95 95 92 87 87 81 80 78 76
62 67 70 70 65 64 67 70 82 78 79 81 87 87 89 90 88 90 91 92 91 88 93 88 89 90 88 84 84 84 79 71
54 64 68 70 70 71 71 72 75 82 80 87 82 80 84 87 83 87 90 90 91 94 90 95 88 90 84 81 85 83 81 80
50 60 68 73 76 80 76 76 72 82 88 88 88 88 86 86 82 90 92 90 90 93 94 93 94 98 97 94 87 86 86 81
42 50 59 71 69 69 68 70 72 74 83 92 87 90 88 88 87 87 90 89 91 96 96 94 95 98 97 98 98 92 89 84
37 41 48 66 64 69 85 88 95 89 87 85 86 86 88 90 85 84 86 88 88 91 92 95 95 97 95 97 99 99 94 88
28 28 39 54 68 70 76 73 77 78 84 87 86 89 94 88 85 86 86 89 91 90 94 96 97 96 99 97 94 95 98 94
61 38 41 50 68 66 78 74 74 96 96 93 93 94 92 93 94 96 96 95 94 95 97 98 97 96 97 98 99 98 98 99
59 76 66 71 73 71 82 79 96 97 97 97 97 96 96 94 94 96 96 97 97 98 97 98 98 98 97 98 98 98 97 99
78 73 88 91 83 87 92 93 94 93 94 97 98 99 99 99 98 98 98 96 96 97 97 97 98 99 99 99 98 98 98 99
93 94 94 94 95 97 97 95 97 97 97 98 98 97 97 95 90 90 89 90 94 95 94 94 96 98 97 97 98 96 95 96

GFSFLT2_sfc_rhum_273.txt.gz
RH
77 72 78 93 92 92 93 94 93 93 94 94 93 93 93 91 90 90 91 92 92 92 93 93 92 90 88 88 90 86 52 42
75 74 69 70 71 93 93 94 93 93 93 94 95 94 92 92 91 91 91 91 91 92 93 94 93 91 90 90 91 87 50 47
70 67 69 70 67 71 91 93 93 93 90 93 93 67 66 68 75 85 91 92 92 92 93 94 94 94 93 92 91 47 47 45
65 68 68 71 63 69 72 69 67 69 70 70 70 74 70 64 73 94 91 92 92 93 93 94 93 55 55 84 54 51 50 46
64 73 74 71 65 64 63 65 66 68 74 73 70 69 73 73 70 70 68 82 62 70 66 61 58 58 54 57 53 58 47 43
55 64 75 76 64 66 64 64 66 67 67 77 72 72 74 72 66 66 70 62 63 64 58 62 64 63 63 61 60 55 47 46
53 65 74 73 78 68 68 70 66 64 66 71 69 66 70 67 67 65 62 62 63 62 60 59 59 60 59 59 57 58 58 53
51 57 72 70 75 77 72 71 69 68 64 66 75 70 70 65 66 64 63 64 61 63 59 56 55 54 57 60 59 57 57 59
52 57 64 72 74 71 70 68 67 66 64 71 74 75 74 72 67 65 61 66 70 68 67 64 60 54 59 57 58 60 57 59
51 49 56 67 68 65 61 61 66 63 64 66 75 74 74 76 68 65 60 65 64 62 64 62 61 56 56 54 55 58 60 63
52 60 61 64 65 59 64 66 66 60 62 65 72 73 75 73 68 66 68 64 66 65 64 66 60 59 56 58 60 61 62 57
51 56 64 68 61 64 58 59 61 61 62 67 73 71 74 77 69 69 69 64 64 66 70 63 65 66 62 62 65 66 67 69
48 54 63 63 65 65 62 63 59 60 60 70 73 80 78 80 76 78 79 73 69 73 76 76 73 82 75 76 73 72 74 74
32 45 54 61 58 62 59 60 58 57 60 72 72 80 79 81 83 85 84 81 82 85 85 77 72 81 82 85 91 73 66 70
34 32 43 57 63 63 65 64 64 65 64 68 72 74 80 82 88 90 91 92 92 93 90 84 82 91 91 89 98 88 73 58
50 41 36 51 67 64 72 66 65 62 64 66 71 76 84 87 88 89 90 93 92 91 88 90 90 90 96 94 90 89 89 75
67 56 52 42 61 67 72 72 65 71 74 78 77 81 80 81 84 91 90 91 89 87 85 91 93 94 95 95 96 95 95 99
75 69 61 64 54 73 74 77 75 81 82 84 87 82 85 85 80 85 89 90 91 91 94 96 98 97 96 96 96 96 86 97
82 80 76 80 72 73 74 78 78 74 79 82 85 87 90 94 95 98 97 95 95 94 94 94 95 96 96 97 96 97 96 93
88 87 90 88 83 84 81 78 77 77 78 85 96 97 97 95 94 91 87 87 86 87 87 90 92 95 92 91 90 89 89 92

GFSFLT2_sfc_rhum_279.txt.gz
RH
48 52 66 93 92 92 92 91 91 91 91 91 91 91 91 92 92 91 92 92 91 91 91 88 86 86 86 85 85 85 51 30
40 50 45 51 54 92 94 92 92 91 91 92 92 93 92 92 92 91 92 92 92 93 92 91 90 89 88 88 88 86 50 31
37 40 41 45 42 50 91 94 93 93 88 91 90 55 52 57 68 78 90 92 93 93 93 94 94 92 91 90 90 47 33 28
30 36 37 41 32 41 55 49 54 56 53 53 59 54 44 39 52 79 87 89 90 91 92 93 93 48 47 85 55 38 30 26
24 40 44 40 35 30 36 41 44 46 55 53 50 46 46 38 38 48 55 80 55 66 64 61 53 43 32 38 43 40 30 25
22 25 45 49 34 32 31 35 38 42 44 59 54 50 50 48 38 37 48 41 50 41 42 48 51 47 43 40 38 34 27 27
19 26 42 47 54 37 37 37 36 38 41 52 51 49 54 47 46 40 36 37 37 42 40 38 43 44 42 41 42 42 42 32
18 23 37 44 52 56 44 43 38 39 38 42 58 54 54 47 50 43 39 35 34 36 38 35 36 38 42 41 40 41 41 42
20 26 36 47 54 54 51 40 41 38 40 50 52 60 58 54 48 48 42 41 44 42 41 38 36 34 36 35 36 43 41 42
19 20 28 45 51 50 46 43 44 43 41 44 54 56 59 59 50 48 45 45 42 44 42 40 39 38 39 36 36 39 44 45
21 25 28 38 48 47 52 54 48 45 44 43 51 54 57 59 52 49 55 47 47 46 46 46 42 41 38 39 40 38 40 35
31 33 37 40 40 49 47 47 49 48 48 45 49 49 56 61 54 56 54 50 50 50 58 52 46 44 37 38 44 47 47 48
39 42 47 42 32 41 50 53 50 48 47 51 52 51 58 62 59 56 58 56 58 64 63 68 60 57 55 59 54 56 62 56
43 44 48 51 44 34 36 47 45 47 48 51 53 54 56 58 63 58 62 60 67 67 69 67 68 65 63 71 78 66 63 63
45 47 51 54 57 51 42 39 49 49 50 50 49 53 57 60 65 62 65 66 68 72 72 72 68 66 72 75 86 78 57 70
38 49 53 56 63 62 62 54 47 45 50 44 44 52 57 62 66 68 68 66 69 71 70 72 71 69 84 79 80 78 80 93
35 46 53 64 72 76 69 66 61 52 48 51 53 53 58 60 70 72 72 71 72 71 73 78 73 72 84 94 92 93 90 93
34 42 54 68 80 83 86 84 69 64 62 55 59 76 71 66 70 77 77 79 75 71 75 84 86 84 86 92 93 94 96 92
32 40 56 73 86 89 90 87 81 66 71 62 70 80 77 76 82 88 90 88 89 92 94 97 97 94 96 99 97 98 96 91
32 36 53 78 86 90 91 92 94 93 94 93 96 96 97 95 95 95 94 92 90 91 95 97 97 98 98 99 98 96 92 87

GFSFLT2_sfc_rhum_282.txt.gz
RH
66 71 82 92 94 94 95 94 93 92 91 91 91 91 92 93 92 92 92 92 91 90 90 89 88 87 87 86 86 85 88 62
64 67 66 77 83 93 94 94 94 93 92 92 93 92 92 93 94 92 92 93 93 92 93 91 88 87 87 87 88 87 90 65
54 58 54 64 65 72 93 92 93 93 91 92 96 83 81 79 85 83 91 93 94 94 94 94 93 91 90 90 90 82 69 55
36 51 50 55 41 53 78 74 80 82 79 80 85 81 70 61 69 83 89 90 92 94 95 95 96 85 83 93 87 74 59 47
30 50 58 52 49 46 57 60 67 70 75 73 76 68 69 61 62 67 75 88 80 87 90 91 84 80 69 60 73 65 54 43
28 37 55 57 46 44 47 56 56 60 64 72 68 72 68 64 56 65 70 66 76 68 70 69 73 66 62 55 59 58 55 46
30 32 51 55 57 46 46 54 55 56 59 63 64 63 66 62 57 54 61 62 66 65 58 59 60 62 57 54 51 55 58 56
28 31 52 51 56 57 53 48 52 55 54 57 65 63 66 61 63 58 55 58 54 58 54 51 57 55 56 53 51 52 53 54
36 35 55 58 59 60 57 62 47 52 49 57 65 65 64 64 62 61 56 54 62 53 53 53 50 49 52 54 52 51 49 54
35 40 51 62 62 61 57 56 58 55 48 52 62 65 64 66 62 60 58 58 56 63 63 59 56 59 61 56 48 50 51 52
43 51 54 60 62 61 64 66 64 56 56 49 59 61 66 65 61 61 65 59 58 57 64 64 59 62 54 50 51 51 53 45
47 50 58 62 63 65 60 62 62 59 57 53 55 57 59 70 63 62 64 61 59 60 57 58 57 56 46 44 55 55 55 57
44 53 62 60 59 63 63 60 61 65 57 59 60 60 63 65 68 64 63 60 59 59 62 65 66 64 70 65 68 71 72 69
38 45 56 60 62 69 68 66 59 51 57 60 60 63 63 64 66 68 65 61 65 64 66 66 65 63 65 88 84 78 69 65
36 40 50 62 73 71 75 76 73 64 50 60 59 62 65 66 67 67 68 68 67 67 70 67 68 65 67 80 96 85 84 88
34 37 47 60 73 78 86 88 91 82 69 63 55 63 64 66 68 70 72 68 71 70 70 72 72 86 85 71 73 85 93 96
39 38 41 70 75 80 82 90 87 84 81 74 63 68 66 63 67 69 76 75 72 73 76 78 76 88 81 84 86 86 94 97
36 40 40 73 79 81 86 92 94 90 89 91 87 73 68 72 66 71 74 78 77 78 78 82 83 82 82 91 94 94 91 96
32 37 42 76 82 86 88 92 94 92 94 96 96 96 97 98 93 85 86 85 85 86 89 88 92 91 96 97 98 98 98 98
38 35 37 74 81 85 86 90 94 94 94 96 96 97 98 96 97 98 98 97 98 97 98 97 95 97 96 96 97 97 96 98

GFSFLT2_sfc_rhum_285.txt.gz
RH
86 88 92 95 97 96 96 95 95 95 93 92 92 93 94 93 92 92 93 93 92 91 91 93 92 88 88 89 90 88 92 90
81 90 94 96 97 97 97 96 96 95 94 93 93 94 93 94 94 92 92 93 93 93 93 92 92 91 91 90 90 88 94 93
69 72 82 94 95 92 96 96 96 95 94 93 93 92 94 94 93 94 92 93 94 94 95 95 93 91 90 90 90 90 92 82
64 64 66 74 64 77 96 93 95 94 93 93 92 95 92 83 90 93 92 92 93 95 96 96 96 98 96 94 91 88 87 74
61 64 60 62 53 63 83 85 92 92 93 91 90 86 85 82 84 82 85 91 88 91 94 95 96 97 96 91 88 87 79 67
43 58 58 56 52 55 64 72 75 78 82 85 84 84 82 73 73 74 80 77 85 86 88 88 95 94 89 82 75 79 75 66
43 47 61 55 55 59 53 66 66 66 70 76 74 77 76 70 65 67 71 72 78 78 78 79 80 82 78 76 68 67 69 62
46 51 60 60 55 60 56 60 67 69 62 67 72 68 73 70 67 62 67 69 69 71 70 69 69 68 70 65 63 58 59 62
49 51 70 74 72 79 72 57 64 61 60 62 69 66 64 67 65 64 59 64 64 69 69 63 62 61 61 63 60 56 54 56
44 50 70 88 90 88 71 61 77 71 72 61 64 67 64 62 68 64 61 60 65 65 68 66 61 58 61 59 58 56 54 51
36 43 63 81 85 87 88 86 88 86 85 87 68 66 67 67 66 67 65 61 66 60 68 64 62 59 57 58 56 58 54 49
33 35 50 74 84 84 88 91 90 90 91 82 80 74 71 70 67 64 67 67 64 61 57 66 60 60 51 49 54 54 55 59
34 31 36 74 75 77 81 88 91 90 77 66 76 80 74 74 69 68 73 69 65 64 62 58 64 62 70 63 70 56 54 53
32 31 34 76 74 75 76 83 86 85 84 79 65 61 71 76 71 71 69 68 68 66 66 65 60 60 68 86 88 68 71 68
30 35 42 79 77 72 72 72 78 79 84 88 82 78 71 71 66 69 72 72 71 67 68 66 71 68 64 88 96 90 84 88
34 42 43 75 79 81 86 82 86 82 83 80 87 86 85 74 77 70 75 75 75 72 68 69 73 77 85 67 82 90 90 93
40 44 38 86 85 85 84 85 85 85 83 84 89 90 92 96 95 91 87 84 78 77 75 75 74 81 80 82 76 73 94 96
41 42 40 90 90 88 87 87 91 92 89 92 94 92 91 91 90 93 96 89 86 81 80 79 82 84 81 85 81 88 86 89
38 43 47 89 87 92 93 93 90 90 92 94 94 94 94 95 94 94 95 95 94 87 88 88 88 90 90 90 87 96 96 97
50 50 61 67 83 90 94 93 92 92 92 94 94 95 94 92 92 92 93 94 95 96 97 96 94 95 92 93 96 95 96 96

GFSFLT2_sfc_rhum_291.txt.gz
RH
95 97 96 94 94 93 92 90 90 91 91 90 89 91 93 94 92 92 91 92 93 93 93 93 91 90 89 89 92 94 96 97
86 94 97 98 98 96 95 94 92 92 92 92 92 93 93 93 93 92 91 91 92 93 94 94 93 92 91 90 90 90 95 96
77 82 88 95 96 94 96 96 95 94 93 93 95 92 94 93 91 91 92 92 92 92 94 95 96 95 93 91 91 88 96 94
70 72 76 88 86 92 96 92 93 96 97 96 98 96 97 89 90 94 94 93 92 93 94 95 96 94 95 95 90 92 95 89
66 76 78 85 94 96 99 99 96 91 91 94 98 95 99 97 94 93 96 93 92 92 92 93 93 94 95 93 88 92 89 83
68 72 77 82 93 94 95 98 98 97 95 91 94 94 93 96 95 91 94 90 92 92 90 89 90 93 93 94 92 88 84 83
74 72 75 73 83 96 97 97 98 97 97 90 96 92 91 92 92 89 89 83 85 86 90 87 88 90 92 93 90 89 85 82
73 79 79 78 86 91 94 90 94 96 96 94 91 92 86 83 82 81 81 80 78 78 79 81 83 80 84 86 88 83 81 80
68 64 88 91 91 92 95 92 92 95 94 95 93 94 95 96 94 85 74 68 75 75 76 79 76 75 76 72 79 79 76 74
77 68 86 91 92 94 93 95 97 94 94 91 88 94 95 97 98 97 95 93 92 89 85 83 79 75 74 72 70 72 72 70
70 84 87 89 87 87 87 88 96 97 97 93 90 88 86 95 96 95 95 98 96 93 92 92 89 85 77 70 70 72 70 62
57 76 87 84 76 73 68 68 91 95 93 89 87 89 83 90 95 96 96 95 95 96 94 90 92 89 82 74 70 74 70 71
50 86 84 76 71 72 67 77 75 86 84 82 82 83 86 90 90 90 92 97 95 94 96 96 97 94 96 94 93 72 71 69
49 91 84 78 76 77 88 82 90 87 81 83 77 76 85 84 88 86 89 92 92 92 96 97 94 93 95 94 95 90 75 68
66 86 88 89 91 82 78 73 69 77 68 68 75 80 83 86 86 86 91 93 93 94 95 97 96 93 94 90 98 94 95 82
66 90 94 86 94 90 92 84 87 78 70 73 77 78 82 84 88 87 85 93 95 95 91 96 96 98 96 93 87 92 95 90
75 82 88 94 92 89 89 91 77 70 72 75 78 79 84 84 88 91 91 92 93 95 94 93 95 96 95 95 96 93 90 94
88 90 90 89 89 90 91 77 75 74 76 78 83 82 86 85 85 90 90 91 92 93 94 94 97 97 96 95 90 90 92 95
75 87 90 91 91 92 91 91 86 86 85 88 90 91 91 90 89 90 90 89 89 91 93 94 95 97 96 97 97 97 92 84
81 84 93 91 80 85 91 88 88 87 89 92 93 93 93 91 92 92 88 87 89 89 92 93 93 96 96 96 96 96 97 95